Weather History for Colby, KS

Change the Weather History Date:

Monday, February 18, 2013

  Actual Average (KGLD) Record (KGLD)
Temperature  
Mean Temperature 34 °F 33 °F  
Max Temperature 44 °F 46 °F 74 °F (1986)
Min Temperature 23 °F 20 °F -4 °F (2006)
Degree Days  
Heating Degree Days 32 32  
Month to date heating degree days 610  
Since 1 July heating degree days 4113  
Cooling Degree Days 0 0  
Month to date cooling degree days 0  
Year to date cooling degree days 0  
Moisture  
Dew Point 25 °F    
Average Humidity 67    
Maximum Humidity 93    
Minimum Humidity 34    
Precipitation  
Precipitation 0.00 in 0.01 in 0.76 in (1971)
Month to date precipitation 0.28  
Year to date precipitation 0.66  
Snow  
Snow 0.00 in 0.10 in - ()
Month to date snowfall 3.7  
Since 1 July snowfall 22.3  
Snow Depth -    
Sea Level Pressure  
Sea Level Pressure 29.90 in    
Wind  
Wind Speed 22 mph (NW)    
Max Wind Speed 30 mph    
Max Gust Speed 38 mph    
Visibility 10 miles    
Events      
T = Trace of Precipitation, MM = Missing Value Source: NWS Daily Summary

Daily Weather History Graph

Daily Weather History Graph

Search for Another Location

Airport:

Trip Planner

Search our weather history database for the weather conditions in past years. The results will help you decide how hot, cold, wet, or windy it might be!

Date:

Astronomy

Feb. 18, 2013 Rise Set
Actual Time 7:31 AM CST 6:24 PM CST
Civil Twilight 7:04 AM CST 6:52 PM CST
Nautical Twilight 6:33 AM CST 7:23 PM CST
Astronomical Twilight 6:02 AM CST 7:54 PM CST
Moon 12:12 PM CST (2/18) 2:12 AM CST (2/18)
Length of Visible Light 11h 47m
Length of Day
10h 52m
First Quarter, 58% of the Moon is Illuminated
Feb 18
First Quarter
Feb 25
Full
Mar 4
Last Quarter
Mar 11
New
Mar 19
First Quarter

Hourly Weather History & Observations

Time (CST) Temp. Windchill Dew Point Humidity Pressure Visibility Wind Dir Wind Speed Gust Speed Precip Events Conditions
12:15 AM 42.8 °F 32.3 °F 30.2 °F 61% 29.55 in 10.0 mi North 29.9 mph 38.0 mph N/A   Clear
12:55 AM 41.0 °F 31.1 °F 32.0 °F 70% 29.59 in 10.0 mi North 23.0 mph 33.4 mph N/A   Clear
1:15 AM 41.0 °F 30.7 °F 32.0 °F 70% 29.60 in 10.0 mi North 25.3 mph 34.5 mph N/A   Clear
1:35 AM 39.2 °F 28.7 °F 30.2 °F 70% 29.61 in 10.0 mi North 23.0 mph 32.2 mph N/A   Clear
1:55 AM 37.4 °F 26.4 °F 30.2 °F 75% 29.62 in 10.0 mi North 23.0 mph 29.9 mph N/A   Clear
2:15 AM 35.6 °F 24.2 °F 30.2 °F 81% 29.63 in 10.0 mi NNW 21.9 mph 27.6 mph N/A   Clear
2:35 AM 35.6 °F 24.2 °F 30.2 °F 81% 29.64 in 10.0 mi NNW 21.9 mph 31.1 mph N/A   Clear
2:55 AM 35.6 °F 24.2 °F 30.2 °F 81% 29.64 in 10.0 mi NNW 21.9 mph 25.3 mph N/A   Clear
3:15 AM 33.8 °F 21.9 °F 30.2 °F 87% 29.66 in 10.0 mi NNW 21.9 mph 25.3 mph N/A   Clear
3:35 AM 33.8 °F 22.8 °F 30.2 °F 87% 29.68 in 10.0 mi NNW 18.4 mph 26.5 mph N/A   Clear
3:55 AM 33.8 °F 22.2 °F 30.2 °F 87% 29.68 in 10.0 mi NNW 20.7 mph 27.6 mph N/A   Clear
4:15 AM 32.0 °F 20.1 °F 30.2 °F 93% 29.68 in 10.0 mi NNW 19.6 mph - N/A   Clear
4:35 AM 32.0 °F 21.2 °F 30.2 °F 93% 29.69 in 10.0 mi NNW 16.1 mph - N/A   Clear
4:55 AM 33.8 °F 22.5 °F 30.2 °F 87% 29.70 in 10.0 mi NNW 19.6 mph - N/A   Clear
5:15 AM 33.8 °F 21.9 °F 30.2 °F 87% 29.72 in 10.0 mi NNW 21.9 mph 27.6 mph N/A   Clear
5:35 AM 33.8 °F 21.9 °F 30.2 °F 87% 29.74 in 10.0 mi NW 21.9 mph 28.8 mph N/A   Scattered Clouds
7:15 AM 32.0 °F 18.9 °F 28.4 °F 87% 29.80 in 10.0 mi NW 24.2 mph 28.8 mph N/A   Mostly Cloudy
7:35 AM 32.0 °F 19.2 °F 28.4 °F 87% 29.82 in 10.0 mi NNW 23.0 mph 28.8 mph N/A   Mostly Cloudy
7:55 AM 32.0 °F 20.1 °F 28.4 °F 87% 29.84 in 10.0 mi NW 19.6 mph - N/A   Mostly Cloudy
8:35 AM 32.0 °F 20.1 °F 28.4 °F 87% 29.86 in 10.0 mi NW 19.6 mph 25.3 mph N/A   Scattered Clouds
8:55 AM 32.0 °F 18.9 °F 28.4 °F 87% 29.87 in 10.0 mi NW 24.2 mph 29.9 mph N/A   Scattered Clouds
9:15 AM 33.8 °F 21.6 °F 28.4 °F 81% 29.89 in 10.0 mi NNW 23.0 mph 32.2 mph N/A   Scattered Clouds
9:35 AM 33.8 °F 20.5 °F 28.4 °F 81% 29.89 in 10.0 mi NNW 27.6 mph 32.2 mph N/A   Clear
9:55 AM 35.6 °F 23.0 °F 28.4 °F 75% 29.89 in 10.0 mi NNW 27.6 mph 32.2 mph N/A   Scattered Clouds
10:15 AM 35.6 °F 23.2 °F 28.4 °F 75% 29.91 in 10.0 mi NNW 26.5 mph 34.5 mph N/A   Scattered Clouds
10:35 AM 37.4 °F 26.6 °F 28.4 °F 70% 29.92 in 10.0 mi NNW 21.9 mph 33.4 mph N/A   Scattered Clouds
10:55 AM 37.4 °F 25.6 °F 26.6 °F 65% 29.92 in 10.0 mi NNW 26.5 mph 35.7 mph N/A   Scattered Clouds
11:15 AM 37.4 °F 25.4 °F 26.6 °F 65% 29.94 in 10.0 mi NNW 27.6 mph 33.4 mph N/A   Scattered Clouds
11:35 AM 39.2 °F 27.8 °F 26.6 °F 61% 29.94 in 10.0 mi NNW 27.6 mph 35.7 mph N/A   Mostly Cloudy
11:55 AM 41.0 °F 29.8 °F 26.6 °F 57% 29.95 in 10.0 mi NNW 29.9 mph 38.0 mph N/A   Scattered Clouds
12:15 PM 41.0 °F 30.7 °F 24.8 °F 53% 29.95 in 10.0 mi NNW 25.3 mph 35.7 mph N/A   Scattered Clouds
12:55 PM 42.8 °F 32.5 °F 21.2 °F 42% 29.95 in 10.0 mi NNW 28.8 mph 38.0 mph N/A   Scattered Clouds
1:15 PM 42.8 °F 32.7 °F 21.2 °F 42% 29.94 in 10.0 mi NNW 27.6 mph 33.4 mph N/A   Clear
1:35 PM 42.8 °F 33.5 °F 21.2 °F 42% 29.94 in 10.0 mi NW 23.0 mph 31.1 mph N/A   Scattered Clouds
1:55 PM 44.6 °F 35.5 °F 21.2 °F 39% 29.93 in 10.0 mi NW 25.3 mph 29.9 mph N/A   Scattered Clouds
2:15 PM 44.6 °F 36.6 °F 21.2 °F 39% 29.94 in 10.0 mi NNW 19.6 mph 31.1 mph N/A   Clear
2:35 PM 44.6 °F 35.7 °F 21.2 °F 39% 29.94 in 10.0 mi NNW 24.2 mph 32.2 mph N/A   Clear
2:55 PM 44.6 °F 36.1 °F 19.4 °F 37% 29.94 in 10.0 mi NW 21.9 mph 29.9 mph N/A   Clear
3:15 PM 44.6 °F 37.2 °F 19.4 °F 37% 29.95 in 10.0 mi NNW 17.3 mph 27.6 mph N/A   Clear
3:35 PM 44.6 °F 37.2 °F 19.4 °F 37% 29.95 in 10.0 mi NNW 17.3 mph 26.5 mph N/A   Scattered Clouds
3:55 PM 44.6 °F 36.4 °F 19.4 °F 37% 29.95 in 10.0 mi NW 20.7 mph 26.5 mph N/A   Clear
4:15 PM 44.6 °F 36.9 °F 19.4 °F 37% 29.96 in 10.0 mi NW 18.4 mph 26.5 mph N/A   Clear
4:35 PM 44.6 °F 36.4 °F 17.6 °F 34% 29.96 in 10.0 mi NNW 20.7 mph - N/A   Clear
4:55 PM 44.6 °F 36.6 °F 17.6 °F 34% 29.97 in 10.0 mi NNW 19.6 mph 25.3 mph N/A   Clear
5:15 PM 42.8 °F 34.3 °F 19.4 °F 39% 29.98 in 10.0 mi NNW 19.6 mph 29.9 mph N/A   Clear
5:35 PM 42.8 °F 34.5 °F 17.6 °F 36% 29.98 in 10.0 mi NNW 18.4 mph 21.9 mph N/A   Mostly Cloudy
5:55 PM 41.0 °F 32.5 °F 17.6 °F 39% 30.01 in 10.0 mi NW 17.3 mph - N/A   Overcast
6:15 PM 41.0 °F 32.8 °F 19.4 °F 42% 30.02 in 10.0 mi NNW 16.1 mph 25.3 mph N/A   Overcast
6:55 PM 37.4 °F 30.3 °F 19.4 °F 48% 30.03 in 10.0 mi NW 10.4 mph - N/A   Overcast
7:15 PM 35.6 °F 29.2 °F 19.4 °F 52% 30.04 in 10.0 mi NW 8.1 mph - N/A   Overcast
7:35 PM 32.0 °F 27.5 °F 19.4 °F 60% 30.05 in 10.0 mi NW 4.6 mph - N/A   Overcast
7:55 PM 30.2 °F 22.6 °F 17.6 °F 60% 30.06 in 10.0 mi WNW 8.1 mph - N/A   Overcast
8:15 PM 30.2 °F 22.6 °F 17.6 °F 60% 30.06 in 10.0 mi WNW 8.1 mph - N/A   Scattered Clouds
8:35 PM 28.4 °F 19.1 °F 19.4 °F 69% 30.06 in 10.0 mi WNW 10.4 mph - N/A   Scattered Clouds
8:55 PM 28.4 °F 19.7 °F 21.2 °F 74% 30.07 in 10.0 mi WNW 9.2 mph - N/A   Scattered Clouds
9:15 PM 28.4 °F 19.1 °F 21.2 °F 74% 30.08 in 10.0 mi WNW 10.4 mph - N/A   Scattered Clouds
9:35 PM 28.4 °F 19.7 °F 23.0 °F 80% 30.09 in 10.0 mi WNW 9.2 mph - N/A   Clear
9:55 PM 26.6 °F 17.5 °F 23.0 °F 86% 30.09 in 10.0 mi WNW 9.2 mph - N/A   Clear
10:15 PM 26.6 °F 17.5 °F 23.0 °F 86% 30.10 in 10.0 mi WNW 9.2 mph - N/A   Clear
10:35 PM 24.8 °F 16.1 °F 23.0 °F 93% 30.10 in 10.0 mi WNW 8.1 mph - N/A   Clear
10:55 PM 23.0 °F 13.1 °F 21.2 °F 93% 30.11 in 10.0 mi WNW 9.2 mph - N/A   Clear
11:15 PM 26.6 °F 16.2 °F 23.0 °F 86% 30.12 in 10.0 mi WNW 11.5 mph - N/A   Clear
11:35 PM 26.6 °F 15.7 °F 23.0 °F 86% 30.12 in 10.0 mi WNW 12.7 mph - N/A   Clear
11:55 PM 23.0 °F 12.4 °F 21.2 °F 93% 30.13 in 10.0 mi WNW 10.4 mph - N/A   Clear